Year,Month,Day,Hour,Minute,Value (Times are PST for temperature in C)
2014,06,30,00,00,14.60
2014,06,30,00,01,14.60
2014,06,30,00,02,14.60
2014,06,30,00,03,14.60
2014,06,30,00,04,14.60
2014,06,30,00,05,14.60
2014,06,30,00,06,14.50
2014,06,30,00,07,14.60
2014,06,30,00,08,14.60
2014,06,30,00,09,14.60
2014,06,30,00,10,14.60
2014,06,30,00,11,14.60
2014,06,30,00,12,14.60
2014,06,30,00,13,14.60
2014,06,30,00,14,14.60
2014,06,30,00,15,14.60
2014,06,30,00,16,14.50
2014,06,30,00,17,14.50
2014,06,30,00,18,14.50
2014,06,30,00,19,14.50
2014,06,30,00,20,14.40
2014,06,30,00,21,14.50
2014,06,30,00,22,14.40
2014,06,30,00,23,14.40
2014,06,30,00,24,14.40
2014,06,30,00,25,14.40
2014,06,30,00,26,14.40
2014,06,30,00,27,14.40
2014,06,30,00,28,14.40
2014,06,30,00,29,14.30
2014,06,30,00,30,14.30
2014,06,30,00,31,14.30
2014,06,30,00,32,14.30
2014,06,30,00,33,14.30
2014,06,30,00,34,14.30
2014,06,30,00,35,14.20
2014,06,30,00,36,14.20
2014,06,30,00,37,14.20
2014,06,30,00,38,14.20
2014,06,30,00,39,14.20
2014,06,30,00,40,14.20
2014,06,30,00,41,14.20
2014,06,30,00,42,14.20
2014,06,30,00,43,14.10
2014,06,30,00,44,14.10
2014,06,30,00,45,14.10
2014,06,30,00,46,14.10
2014,06,30,00,47,14.10
2014,06,30,00,48,14.10
2014,06,30,00,49,14.10
2014,06,30,00,50,14.10
2014,06,30,00,51,14.10
2014,06,30,00,52,14.00
2014,06,30,00,53,14.00
2014,06,30,00,54,14.00
2014,06,30,00,55,14.00
2014,06,30,00,56,14.00
2014,06,30,00,57,14.00
2014,06,30,00,58,14.00
2014,06,30,00,59,13.90
2014,06,30,01,00,13.90
2014,06,30,01,01,13.90
2014,06,30,01,02,13.90
2014,06,30,01,03,13.90
2014,06,30,01,04,13.90
2014,06,30,01,05,14.00
2014,06,30,01,06,14.00
2014,06,30,01,07,14.10
2014,06,30,01,08,14.10
2014,06,30,01,09,14.10
2014,06,30,01,10,14.10
2014,06,30,01,11,14.10
2014,06,30,01,12,14.10
2014,06,30,01,13,14.10
2014,06,30,01,14,14.10
2014,06,30,01,15,14.10
2014,06,30,01,16,14.10
2014,06,30,01,17,14.10
2014,06,30,01,18,14.10
2014,06,30,01,19,14.10
2014,06,30,01,20,14.00
2014,06,30,01,21,14.00
2014,06,30,01,22,14.00
2014,06,30,01,23,14.00
2014,06,30,01,24,13.90
2014,06,30,01,25,13.90
2014,06,30,01,26,13.90
2014,06,30,01,27,13.90
2014,06,30,01,28,13.90
2014,06,30,01,29,13.90
2014,06,30,01,30,13.90
2014,06,30,01,31,13.90
2014,06,30,01,32,13.90
2014,06,30,01,33,13.80
2014,06,30,01,34,13.80
2014,06,30,01,35,13.80
2014,06,30,01,36,13.80
2014,06,30,01,37,13.80
2014,06,30,01,38,13.80
2014,06,30,01,39,13.80
2014,06,30,01,40,13.80
2014,06,30,01,41,13.80
2014,06,30,01,42,13.70
2014,06,30,01,43,13.70
2014,06,30,01,44,13.70
2014,06,30,01,45,13.70
2014,06,30,01,46,13.60
2014,06,30,01,47,13.60
2014,06,30,01,48,13.60
2014,06,30,01,49,13.60
2014,06,30,01,50,13.60
2014,06,30,01,51,13.50
2014,06,30,01,52,13.50
2014,06,30,01,53,13.60
2014,06,30,01,54,13.50
2014,06,30,01,55,13.50
2014,06,30,01,56,13.50
2014,06,30,01,57,13.50
2014,06,30,01,58,13.50
2014,06,30,01,59,13.50
2014,06,30,02,00,13.50
2014,06,30,02,01,13.50
2014,06,30,02,02,13.50
2014,06,30,02,03,13.50
2014,06,30,02,04,13.50
2014,06,30,02,05,13.40
2014,06,30,02,06,13.40
2014,06,30,02,07,13.40
2014,06,30,02,08,13.40
2014,06,30,02,09,13.40
2014,06,30,02,10,13.40
2014,06,30,02,11,13.40
2014,06,30,02,12,13.40
2014,06,30,02,13,13.40
2014,06,30,02,14,13.40
2014,06,30,02,15,13.40
2014,06,30,02,16,13.40
2014,06,30,02,17,13.40
2014,06,30,02,18,13.40
2014,06,30,02,19,13.40
2014,06,30,02,20,13.40
2014,06,30,02,21,13.40
2014,06,30,02,22,13.40
2014,06,30,02,23,13.30
2014,06,30,02,24,13.30
2014,06,30,02,25,13.30
2014,06,30,02,26,13.30
2014,06,30,02,27,13.30
2014,06,30,02,28,13.30
2014,06,30,02,29,13.30
2014,06,30,02,30,13.30
2014,06,30,02,31,13.30
2014,06,30,02,32,13.30
2014,06,30,02,33,13.30
2014,06,30,02,34,13.30
2014,06,30,02,35,13.30
2014,06,30,02,36,13.30
2014,06,30,02,37,13.30
2014,06,30,02,38,13.20
2014,06,30,02,39,13.20
2014,06,30,02,40,13.20
2014,06,30,02,41,13.20
2014,06,30,02,42,13.20
2014,06,30,02,43,13.20
2014,06,30,02,44,13.20
2014,06,30,02,45,13.20
2014,06,30,02,46,13.20
2014,06,30,02,47,13.20
2014,06,30,02,48,13.20
2014,06,30,02,49,13.20
2014,06,30,02,50,13.20
2014,06,30,02,51,13.20
2014,06,30,02,52,13.20
2014,06,30,02,53,13.20
2014,06,30,02,54,13.20
2014,06,30,02,55,13.20
2014,06,30,02,56,13.20
2014,06,30,02,57,13.20
2014,06,30,02,58,13.20
2014,06,30,02,59,13.20
2014,06,30,03,00,13.20
2014,06,30,03,01,13.20
2014,06,30,03,02,13.20
2014,06,30,03,06,13.10
2014,06,30,03,07,13.10
2014,06,30,03,08,13.10
2014,06,30,03,09,13.10
2014,06,30,03,10,13.10
2014,06,30,03,11,13.10
2014,06,30,03,12,13.10
2014,06,30,03,13,13.10
2014,06,30,03,14,13.10
2014,06,30,03,15,13.10
2014,06,30,03,16,13.10
2014,06,30,03,17,13.10
2014,06,30,03,18,13.10
2014,06,30,03,19,13.10
2014,06,30,03,20,13.10
2014,06,30,03,21,13.10
2014,06,30,03,22,13.10
2014,06,30,03,23,13.10
2014,06,30,03,24,13.10
2014,06,30,03,25,13.10
2014,06,30,03,26,13.10
2014,06,30,03,27,13.10
2014,06,30,03,28,13.10
2014,06,30,03,29,13.10
2014,06,30,03,30,13.10
2014,06,30,03,31,13.10
2014,06,30,03,32,13.10
2014,06,30,03,33,13.10
2014,06,30,03,34,13.10
2014,06,30,03,35,13.10
2014,06,30,03,36,13.10
2014,06,30,03,37,13.10
2014,06,30,03,38,13.10
2014,06,30,03,39,13.10
2014,06,30,03,40,13.10
2014,06,30,03,41,13.10
2014,06,30,03,42,13.10
2014,06,30,03,43,13.10
2014,06,30,03,44,13.10
2014,06,30,03,45,13.10
2014,06,30,03,46,13.10
2014,06,30,03,47,13.10
2014,06,30,03,48,13.10
2014,06,30,03,49,13.00
2014,06,30,03,50,13.00
2014,06,30,03,51,13.00
2014,06,30,03,52,13.00
2014,06,30,03,53,13.00
2014,06,30,03,54,13.00
2014,06,30,03,55,12.90
2014,06,30,03,56,12.90
2014,06,30,03,57,12.90
2014,06,30,03,58,12.90
2014,06,30,03,59,12.90
2014,06,30,04,00,12.90
2014,06,30,04,01,12.90
2014,06,30,04,02,12.90
2014,06,30,04,03,12.90
2014,06,30,04,04,12.90
2014,06,30,04,05,12.90
2014,06,30,04,06,12.90
2014,06,30,04,07,12.90
2014,06,30,04,08,12.80
2014,06,30,04,09,12.80
2014,06,30,04,10,12.80
2014,06,30,04,11,12.80
2014,06,30,04,12,12.80
2014,06,30,04,13,12.80
2014,06,30,04,14,12.80
2014,06,30,04,15,12.80
2014,06,30,04,16,12.80
2014,06,30,04,17,12.80
2014,06,30,04,18,12.80
2014,06,30,04,19,12.80
2014,06,30,04,20,12.80
2014,06,30,04,21,12.80
2014,06,30,04,22,12.80
2014,06,30,04,23,12.80
2014,06,30,04,24,12.80
2014,06,30,04,25,12.80
2014,06,30,04,26,12.80
2014,06,30,04,27,12.80
2014,06,30,04,28,12.80
2014,06,30,04,29,12.80
2014,06,30,04,30,12.80
2014,06,30,04,31,12.80
2014,06,30,04,32,12.80
2014,06,30,04,33,12.80
2014,06,30,04,34,12.80
2014,06,30,04,35,12.80
2014,06,30,04,36,12.80
2014,06,30,04,37,12.80
2014,06,30,04,38,12.80
2014,06,30,04,39,12.80
2014,06,30,04,40,12.80
2014,06,30,04,41,12.80
2014,06,30,04,42,12.80
2014,06,30,04,43,12.80
2014,06,30,04,44,12.80
2014,06,30,04,45,12.80
2014,06,30,04,46,12.80
2014,06,30,04,47,12.80
2014,06,30,04,48,12.80
2014,06,30,04,49,12.80
2014,06,30,04,50,12.80
2014,06,30,04,51,12.80
2014,06,30,04,52,12.80
2014,06,30,04,53,12.80
2014,06,30,04,54,12.80
2014,06,30,04,55,12.80
2014,06,30,04,56,12.80
2014,06,30,04,57,12.80
2014,06,30,04,58,12.80
2014,06,30,04,59,12.80
2014,06,30,05,00,12.80
2014,06,30,05,01,12.80
2014,06,30,05,02,12.80
2014,06,30,05,03,12.80
2014,06,30,05,04,12.80
2014,06,30,05,05,12.70
2014,06,30,05,06,12.70
2014,06,30,05,07,12.70
2014,06,30,05,08,12.70
2014,06,30,05,09,12.70
2014,06,30,05,10,12.70
2014,06,30,05,11,12.70
2014,06,30,05,12,12.70
2014,06,30,05,13,12.70
2014,06,30,05,14,12.70
2014,06,30,05,15,12.70
2014,06,30,05,16,12.70
2014,06,30,05,17,12.70
2014,06,30,05,18,12.70
2014,06,30,05,19,12.70
2014,06,30,05,20,12.70
2014,06,30,05,21,12.70
2014,06,30,05,22,12.70
2014,06,30,05,23,12.70
2014,06,30,05,24,12.70
2014,06,30,05,25,12.70
2014,06,30,05,26,12.70
2014,06,30,05,27,12.70
2014,06,30,05,28,12.70
2014,06,30,05,29,12.70
2014,06,30,05,30,12.70
2014,06,30,05,31,12.70
2014,06,30,05,32,12.70
2014,06,30,05,33,12.80
2014,06,30,05,34,12.80
2014,06,30,05,35,12.80
2014,06,30,05,36,12.80
2014,06,30,05,37,12.80
2014,06,30,05,38,12.90
2014,06,30,05,39,12.90
2014,06,30,05,40,12.90
2014,06,30,05,41,13.00
2014,06,30,05,42,13.00
2014,06,30,05,43,13.00
2014,06,30,05,44,13.10
2014,06,30,05,45,13.10
2014,06,30,05,46,13.20
2014,06,30,05,47,13.20
2014,06,30,05,48,13.20
2014,06,30,05,49,13.30
2014,06,30,05,50,13.30
2014,06,30,05,51,13.30
2014,06,30,05,52,13.30
2014,06,30,05,53,13.30
2014,06,30,05,54,13.40
2014,06,30,05,55,13.40
2014,06,30,05,56,13.40
2014,06,30,05,57,13.40
2014,06,30,05,58,13.40
2014,06,30,05,59,13.40
2014,06,30,06,00,13.50
2014,06,30,06,01,13.50
2014,06,30,06,02,13.50
2014,06,30,06,03,13.50
2014,06,30,06,04,13.50
2014,06,30,06,05,13.50
2014,06,30,06,06,13.50
2014,06,30,06,07,13.50
2014,06,30,06,08,13.50
2014,06,30,06,09,13.50
2014,06,30,06,10,13.60
2014,06,30,06,11,13.60
2014,06,30,06,12,13.60
2014,06,30,06,13,13.60
2014,06,30,06,14,13.60
2014,06,30,06,15,13.60
2014,06,30,06,16,13.60
2014,06,30,06,17,13.70
2014,06,30,06,18,13.70
2014,06,30,06,19,13.70
2014,06,30,06,20,13.70
2014,06,30,06,21,13.70
2014,06,30,06,22,13.70
2014,06,30,06,23,13.70
2014,06,30,06,24,13.80
2014,06,30,06,25,13.80
2014,06,30,06,26,13.80
2014,06,30,06,27,13.80
2014,06,30,06,28,13.80
2014,06,30,06,29,13.90
2014,06,30,06,30,13.90
2014,06,30,06,31,13.90
2014,06,30,06,32,13.90
2014,06,30,06,33,13.90
2014,06,30,06,34,13.90
2014,06,30,06,35,14.00
2014,06,30,06,36,14.00
2014,06,30,06,37,14.00
2014,06,30,06,38,14.00
2014,06,30,06,39,14.10
2014,06,30,06,40,14.10
2014,06,30,06,41,14.10
2014,06,30,06,42,14.10
2014,06,30,06,43,14.10
2014,06,30,06,44,14.10
2014,06,30,06,45,14.20
2014,06,30,06,46,14.20
2014,06,30,06,47,14.20
2014,06,30,06,48,14.20
2014,06,30,06,49,14.30
2014,06,30,06,50,14.30
2014,06,30,06,51,14.30
2014,06,30,06,52,14.30
2014,06,30,06,53,14.30
2014,06,30,06,54,14.40
2014,06,30,06,55,14.40
2014,06,30,06,56,14.40
2014,06,30,06,57,14.50
2014,06,30,06,58,14.50
2014,06,30,06,59,14.50
2014,06,30,07,00,14.60
2014,06,30,07,01,14.60
2014,06,30,07,02,14.60
2014,06,30,07,03,14.70
2014,06,30,07,04,14.70
2014,06,30,07,05,14.70
2014,06,30,07,06,14.70
2014,06,30,07,07,14.80
2014,06,30,07,08,14.80
2014,06,30,07,09,14.80
2014,06,30,07,10,14.80
2014,06,30,07,11,14.80
2014,06,30,07,12,14.80
2014,06,30,07,13,14.90
2014,06,30,07,14,14.90
2014,06,30,07,15,14.90
2014,06,30,07,16,14.90
2014,06,30,07,17,15.00
2014,06,30,07,18,15.00
2014,06,30,07,19,15.00
2014,06,30,07,20,15.00
2014,06,30,07,21,15.10
2014,06,30,07,22,15.10
2014,06,30,07,23,15.10
2014,06,30,07,24,15.10
2014,06,30,07,25,15.20
2014,06,30,07,26,15.20
2014,06,30,07,27,15.20
2014,06,30,07,28,15.20
2014,06,30,07,29,15.20
2014,06,30,07,30,15.20
2014,06,30,07,31,15.20
2014,06,30,07,32,15.30
2014,06,30,07,33,15.30
2014,06,30,07,34,15.30
2014,06,30,07,35,15.40
2014,06,30,07,36,15.40
2014,06,30,07,37,15.50
2014,06,30,07,38,15.60
2014,06,30,07,39,15.60
2014,06,30,07,40,15.70
2014,06,30,07,41,15.70
2014,06,30,07,42,15.80
2014,06,30,07,43,15.80
2014,06,30,07,44,15.90
2014,06,30,07,45,15.90
2014,06,30,07,46,16.00
2014,06,30,07,47,16.10
2014,06,30,07,48,16.10
2014,06,30,07,49,16.20
2014,06,30,07,50,16.30
2014,06,30,07,51,16.30
2014,06,30,07,52,16.40
2014,06,30,07,53,16.50
2014,06,30,07,54,16.50
2014,06,30,07,55,16.60
2014,06,30,07,56,16.60
2014,06,30,07,57,16.60
2014,06,30,07,58,16.60
2014,06,30,07,59,16.60
2014,06,30,08,00,16.60
2014,06,30,08,01,16.60
2014,06,30,08,02,16.60
2014,06,30,08,03,16.60
2014,06,30,08,04,16.60
2014,06,30,08,05,16.70
2014,06,30,08,06,16.60
2014,06,30,08,07,16.70
2014,06,30,08,08,16.70
2014,06,30,08,09,16.70
2014,06,30,08,10,16.80
2014,06,30,08,11,16.80
2014,06,30,08,12,16.90
2014,06,30,08,13,16.90
2014,06,30,08,14,16.90
2014,06,30,08,15,17.00
2014,06,30,08,16,17.00
2014,06,30,08,17,17.00
2014,06,30,08,18,17.00
2014,06,30,08,19,17.10
2014,06,30,08,20,17.10
2014,06,30,08,21,17.10
2014,06,30,08,22,17.20
2014,06,30,08,23,17.20
2014,06,30,08,24,17.20
2014,06,30,08,25,17.30
2014,06,30,08,26,17.30
2014,06,30,08,27,17.30
2014,06,30,08,28,17.30
2014,06,30,08,29,17.30
2014,06,30,08,30,17.40
2014,06,30,08,31,17.40
2014,06,30,08,32,17.40
2014,06,30,08,33,17.40
2014,06,30,08,34,17.40
2014,06,30,08,35,17.40
2014,06,30,08,36,17.40
2014,06,30,08,37,17.40
2014,06,30,08,38,17.40
2014,06,30,08,39,17.50
2014,06,30,08,40,17.50
2014,06,30,08,41,17.50
2014,06,30,08,42,17.50
2014,06,30,08,43,17.50
2014,06,30,08,44,17.50
2014,06,30,08,45,17.40
2014,06,30,08,46,17.40
2014,06,30,08,47,17.40
2014,06,30,08,48,17.40
2014,06,30,08,49,17.50
2014,06,30,08,50,17.50
2014,06,30,08,51,17.60
2014,06,30,08,52,17.60
2014,06,30,08,53,17.60
2014,06,30,08,54,17.60
2014,06,30,08,55,17.60
2014,06,30,08,56,17.60
2014,06,30,08,57,17.50
2014,06,30,08,58,17.50
2014,06,30,08,59,17.40
2014,06,30,09,00,17.30
2014,06,30,09,01,17.30
2014,06,30,09,02,17.20
2014,06,30,09,03,17.20
2014,06,30,09,04,17.20
2014,06,30,09,05,17.30
2014,06,30,09,06,17.30
2014,06,30,09,07,17.30
2014,06,30,09,08,17.30
2014,06,30,09,09,17.30
2014,06,30,09,10,17.30
2014,06,30,09,11,17.30
2014,06,30,09,12,17.40
2014,06,30,09,13,17.40
2014,06,30,09,14,17.40
2014,06,30,09,15,17.40
2014,06,30,09,16,17.50
2014,06,30,09,17,17.50
2014,06,30,09,18,17.50
2014,06,30,09,19,17.50
2014,06,30,09,20,17.50
2014,06,30,09,21,17.50
2014,06,30,09,22,17.60
2014,06,30,09,23,17.60
2014,06,30,09,24,17.50
2014,06,30,09,25,17.50
2014,06,30,09,26,17.60
2014,06,30,09,27,17.60
2014,06,30,09,28,17.60
2014,06,30,09,29,17.60
2014,06,30,09,30,17.60
2014,06,30,09,31,17.60
2014,06,30,09,32,17.60
2014,06,30,09,33,17.60
2014,06,30,09,34,17.60
2014,06,30,09,35,17.70
2014,06,30,09,36,17.80
2014,06,30,09,37,17.80
2014,06,30,09,38,17.90
2014,06,30,09,39,17.90
2014,06,30,09,40,18.00
2014,06,30,09,41,18.10
2014,06,30,09,42,18.20
2014,06,30,09,43,18.20
2014,06,30,09,44,18.20
2014,06,30,09,45,18.20
2014,06,30,09,46,18.20
2014,06,30,09,47,18.20
2014,06,30,09,48,18.10
2014,06,30,09,49,18.20
2014,06,30,09,50,18.20
2014,06,30,09,51,18.20
2014,06,30,09,52,18.10
2014,06,30,09,53,18.10
2014,06,30,09,54,18.20
2014,06,30,09,55,18.20
2014,06,30,09,56,18.20
2014,06,30,09,57,18.20
2014,06,30,09,58,18.10
2014,06,30,09,59,18.10
2014,06,30,10,00,18.10
2014,06,30,10,01,18.10
2014,06,30,10,02,18.10
2014,06,30,10,03,18.10
2014,06,30,10,04,18.10
2014,06,30,10,05,18.10
2014,06,30,10,06,18.10
2014,06,30,10,07,18.00
2014,06,30,10,08,17.90
2014,06,30,10,09,17.90
2014,06,30,10,10,17.90
2014,06,30,10,11,17.90
2014,06,30,10,12,17.90
2014,06,30,10,13,17.90
2014,06,30,10,14,17.90
2014,06,30,10,15,18.00
2014,06,30,10,16,18.00
2014,06,30,10,17,18.00
2014,06,30,10,18,18.00
2014,06,30,10,19,18.00
2014,06,30,10,20,18.10
2014,06,30,10,21,18.10
2014,06,30,10,22,18.10
2014,06,30,10,23,18.00
2014,06,30,10,24,18.00
2014,06,30,10,25,17.90
2014,06,30,10,26,17.90
2014,06,30,10,27,17.90
2014,06,30,10,28,17.90
2014,06,30,10,29,17.90
2014,06,30,10,30,17.90
2014,06,30,10,31,17.90
2014,06,30,10,32,18.00
2014,06,30,10,33,18.00
2014,06,30,10,34,18.00
2014,06,30,10,35,18.00
2014,06,30,10,36,18.00
2014,06,30,10,37,18.10
2014,06,30,10,38,18.10
2014,06,30,10,39,18.10
2014,06,30,10,40,18.10
2014,06,30,10,41,18.10
2014,06,30,10,42,18.10
2014,06,30,10,43,18.10
2014,06,30,10,44,18.10
2014,06,30,10,45,18.10
2014,06,30,10,46,18.10
2014,06,30,10,47,18.10
2014,06,30,10,48,18.10
2014,06,30,10,49,18.10
2014,06,30,10,50,18.10
2014,06,30,10,51,18.20
2014,06,30,10,52,18.20
2014,06,30,10,53,18.10
2014,06,30,10,54,18.10
2014,06,30,10,55,18.20
2014,06,30,10,56,18.20
2014,06,30,10,57,18.20
2014,06,30,10,58,18.20
2014,06,30,10,59,18.20
2014,06,30,11,00,18.20
2014,06,30,11,01,18.30
2014,06,30,11,02,18.30
2014,06,30,11,03,18.30
2014,06,30,11,04,18.30
2014,06,30,11,05,18.40
2014,06,30,11,06,18.40
2014,06,30,11,07,18.50
2014,06,30,11,08,18.50
2014,06,30,11,09,18.50
2014,06,30,11,10,18.50
2014,06,30,11,11,18.50
2014,06,30,11,12,18.50
2014,06,30,11,13,18.50
2014,06,30,11,14,18.50
2014,06,30,11,15,18.50
2014,06,30,11,16,18.50
2014,06,30,11,17,18.50
2014,06,30,11,18,18.50
2014,06,30,11,19,18.50
2014,06,30,11,20,18.60
2014,06,30,11,21,18.50
2014,06,30,11,22,18.50
2014,06,30,11,23,18.40
2014,06,30,11,24,18.40
2014,06,30,11,25,18.40
2014,06,30,11,26,18.30
2014,06,30,11,27,18.30
2014,06,30,11,28,18.30
2014,06,30,11,29,18.30
2014,06,30,11,30,18.30
2014,06,30,11,31,18.30
2014,06,30,11,32,18.30
2014,06,30,11,33,18.20
2014,06,30,11,34,18.20
2014,06,30,11,35,18.20
2014,06,30,11,36,18.20
2014,06,30,11,37,18.30
2014,06,30,11,38,18.30
2014,06,30,11,39,18.30
2014,06,30,11,40,18.30
2014,06,30,11,41,18.30
2014,06,30,11,42,18.30
2014,06,30,11,43,18.30
2014,06,30,11,44,18.30
2014,06,30,11,45,18.40
2014,06,30,11,46,18.40
2014,06,30,11,47,18.40
2014,06,30,11,48,18.50
2014,06,30,11,49,18.50
2014,06,30,11,50,18.50
2014,06,30,11,51,18.50
2014,06,30,11,52,18.50
2014,06,30,11,53,18.60
2014,06,30,11,54,18.60
2014,06,30,11,55,18.60
2014,06,30,11,56,18.60
2014,06,30,11,57,18.50
2014,06,30,11,58,18.40
2014,06,30,11,59,18.40
2014,06,30,12,00,18.30
2014,06,30,12,01,18.30
2014,06,30,12,02,18.30
2014,06,30,12,03,18.30
2014,06,30,12,04,18.30
2014,06,30,12,05,18.30
2014,06,30,12,06,18.30
2014,06,30,12,07,18.30
2014,06,30,12,08,18.40
2014,06,30,12,09,18.40
2014,06,30,12,10,18.40
2014,06,30,12,11,18.50
2014,06,30,12,12,18.50
2014,06,30,12,13,18.50
2014,06,30,12,14,18.60
2014,06,30,12,15,18.60
2014,06,30,12,16,18.60
2014,06,30,12,17,18.60
2014,06,30,12,18,18.60
2014,06,30,12,19,18.60
2014,06,30,12,20,18.60
2014,06,30,12,21,18.60
2014,06,30,12,22,18.70
2014,06,30,12,23,18.70
2014,06,30,12,24,18.80
2014,06,30,12,25,18.80
2014,06,30,12,26,18.90
2014,06,30,12,27,19.00
2014,06,30,12,28,19.00
2014,06,30,12,29,19.10
2014,06,30,12,30,19.10
2014,06,30,12,31,19.10
2014,06,30,12,32,19.00
2014,06,30,12,33,19.00
2014,06,30,12,34,19.00
2014,06,30,12,35,19.00
2014,06,30,12,36,19.10
2014,06,30,12,37,19.10
2014,06,30,12,38,19.10
2014,06,30,12,39,19.20
2014,06,30,12,40,19.20
2014,06,30,12,41,19.30
2014,06,30,12,42,19.40
2014,06,30,12,43,19.50
2014,06,30,12,44,19.60
2014,06,30,12,45,19.60
2014,06,30,12,46,19.70
2014,06,30,12,47,19.80
2014,06,30,12,48,19.80
2014,06,30,12,49,19.80
2014,06,30,12,50,19.80
2014,06,30,12,51,19.90
2014,06,30,12,52,19.80
2014,06,30,12,53,19.80
2014,06,30,12,54,19.70
2014,06,30,12,55,19.70
2014,06,30,12,56,19.70
2014,06,30,12,57,19.60
2014,06,30,12,58,19.60
2014,06,30,12,59,19.60
2014,06,30,13,00,19.60
2014,06,30,13,01,19.60
2014,06,30,13,02,19.60
2014,06,30,13,03,19.60
2014,06,30,13,04,19.70
2014,06,30,13,05,19.70
2014,06,30,13,06,19.80
2014,06,30,13,07,19.80
2014,06,30,13,08,19.80
2014,06,30,13,09,19.80
2014,06,30,13,10,19.90
2014,06,30,13,11,20.00
2014,06,30,13,12,20.00
2014,06,30,13,13,20.10
2014,06,30,13,14,20.10
2014,06,30,13,15,20.20
2014,06,30,13,16,20.20
2014,06,30,13,17,20.30
2014,06,30,13,18,20.30
2014,06,30,13,19,20.30
2014,06,30,13,20,20.30
2014,06,30,13,21,20.30
2014,06,30,13,22,20.30
2014,06,30,13,23,20.40
2014,06,30,13,24,20.40
2014,06,30,13,25,20.30
2014,06,30,13,26,20.30
2014,06,30,13,27,20.20
2014,06,30,13,28,20.10
2014,06,30,13,29,20.00
2014,06,30,13,30,20.00
2014,06,30,13,31,19.90
2014,06,30,13,32,19.90
2014,06,30,13,33,19.90
2014,06,30,13,34,19.90
2014,06,30,13,35,19.90
2014,06,30,13,36,20.00
2014,06,30,13,37,19.90
2014,06,30,13,38,19.90
2014,06,30,13,39,19.90
2014,06,30,13,40,19.90
2014,06,30,13,41,19.90
2014,06,30,13,42,19.90
2014,06,30,13,43,19.90
2014,06,30,13,44,20.00
2014,06,30,13,45,20.00
2014,06,30,13,46,20.10
2014,06,30,13,47,20.10
2014,06,30,13,48,20.10
2014,06,30,13,49,20.10
2014,06,30,13,50,20.10
2014,06,30,13,51,20.10
2014,06,30,13,52,20.10
2014,06,30,13,53,20.10
2014,06,30,13,54,20.10
2014,06,30,13,55,20.20
2014,06,30,13,56,20.20
2014,06,30,13,57,20.20
2014,06,30,13,58,20.20
2014,06,30,13,59,20.20
2014,06,30,14,00,20.20
2014,06,30,14,01,20.20
2014,06,30,14,02,20.20
2014,06,30,14,03,20.20
2014,06,30,14,04,20.30
2014,06,30,14,05,20.30
2014,06,30,14,06,20.30
2014,06,30,14,07,20.30
2014,06,30,14,08,20.30
2014,06,30,14,09,20.30
2014,06,30,14,10,20.30
2014,06,30,14,11,20.30
2014,06,30,14,12,20.30
2014,06,30,14,13,20.30
2014,06,30,14,14,20.30
2014,06,30,14,15,20.30
2014,06,30,14,16,20.30
2014,06,30,14,17,20.20
2014,06,30,14,18,20.20
2014,06,30,14,19,20.20
2014,06,30,14,20,20.20
2014,06,30,14,21,20.30
2014,06,30,14,22,20.30
2014,06,30,14,23,20.30
2014,06,30,14,24,20.30
2014,06,30,14,25,20.30
2014,06,30,14,26,20.30
2014,06,30,14,27,20.40
2014,06,30,14,28,20.40
2014,06,30,14,29,20.40
2014,06,30,14,30,20.50
2014,06,30,14,31,20.50
2014,06,30,14,32,20.60
2014,06,30,14,33,20.60
2014,06,30,14,34,20.60
2014,06,30,14,35,20.60
2014,06,30,14,36,20.60
2014,06,30,14,37,20.60
2014,06,30,14,38,20.60
2014,06,30,14,39,20.70
2014,06,30,14,40,20.70
2014,06,30,14,41,20.70
2014,06,30,14,42,20.70
2014,06,30,14,43,20.70
2014,06,30,14,44,20.70
2014,06,30,14,45,20.70
2014,06,30,14,46,20.70
2014,06,30,14,47,20.80
2014,06,30,14,48,20.80
2014,06,30,14,49,20.90
2014,06,30,14,50,20.90
2014,06,30,14,51,20.90
2014,06,30,14,52,20.90
2014,06,30,14,53,20.90
2014,06,30,14,54,20.90
2014,06,30,14,55,20.90
2014,06,30,14,56,20.90
2014,06,30,14,57,20.90
2014,06,30,14,58,20.90
2014,06,30,14,59,20.90
2014,06,30,15,00,20.90
2014,06,30,15,01,21.00
2014,06,30,15,02,21.10
2014,06,30,15,03,21.20
2014,06,30,15,04,21.30
2014,06,30,15,05,21.30
2014,06,30,15,06,21.40
2014,06,30,15,07,21.50
2014,06,30,15,08,21.50
2014,06,30,15,09,21.60
2014,06,30,15,10,21.60
2014,06,30,15,11,21.60
2014,06,30,15,12,21.60
2014,06,30,15,13,21.50
2014,06,30,15,14,21.60
2014,06,30,15,15,21.50
2014,06,30,15,16,21.60
2014,06,30,15,17,21.60
2014,06,30,15,18,21.60
2014,06,30,15,19,21.60
2014,06,30,15,20,21.60
2014,06,30,15,21,21.60
2014,06,30,15,22,21.60
2014,06,30,15,23,21.60
2014,06,30,15,24,21.60
2014,06,30,15,25,21.70
2014,06,30,15,26,21.70
2014,06,30,15,27,21.70
2014,06,30,15,28,21.60
2014,06,30,15,29,21.70
2014,06,30,15,30,21.70
2014,06,30,15,31,21.80
2014,06,30,15,32,21.80
2014,06,30,15,33,21.90
2014,06,30,15,34,21.90
2014,06,30,15,35,22.00
2014,06,30,15,36,22.00
2014,06,30,15,37,22.10
2014,06,30,15,38,22.10
2014,06,30,15,39,22.00
2014,06,30,15,40,22.00
2014,06,30,15,41,22.00
2014,06,30,15,42,22.00
2014,06,30,15,43,22.00
2014,06,30,15,44,22.10
2014,06,30,15,45,22.00
2014,06,30,15,46,22.00
2014,06,30,15,47,22.00
2014,06,30,15,48,21.90
2014,06,30,15,49,21.90
2014,06,30,15,50,21.90
2014,06,30,15,51,21.90
2014,06,30,15,52,21.90
2014,06,30,15,53,21.90
2014,06,30,15,54,21.90
2014,06,30,15,55,22.00
2014,06,30,15,56,22.10
2014,06,30,15,57,22.10
2014,06,30,15,58,22.20
2014,06,30,15,59,22.20
2014,06,30,16,00,22.20
2014,06,30,16,01,22.20
2014,06,30,16,02,22.20
2014,06,30,16,03,22.10
2014,06,30,16,04,22.10
2014,06,30,16,05,22.10
2014,06,30,16,06,22.10
2014,06,30,16,07,22.10
2014,06,30,16,08,22.10
2014,06,30,16,09,22.10
2014,06,30,16,10,22.20
2014,06,30,16,11,22.20
2014,06,30,16,12,22.30
2014,06,30,16,13,22.40
2014,06,30,16,14,22.40
2014,06,30,16,15,22.40
2014,06,30,16,16,22.50
2014,06,30,16,17,22.50
2014,06,30,16,18,22.50
2014,06,30,16,19,22.50
2014,06,30,16,20,22.50
2014,06,30,16,21,22.40
2014,06,30,16,22,22.40
2014,06,30,16,23,22.40
2014,06,30,16,24,22.40
2014,06,30,16,25,22.50
2014,06,30,16,26,22.50
2014,06,30,16,27,22.50
2014,06,30,16,28,22.50
2014,06,30,16,29,22.60
2014,06,30,16,30,22.60
2014,06,30,16,31,22.60
2014,06,30,16,32,22.70
2014,06,30,16,33,22.70
2014,06,30,16,34,22.80
2014,06,30,16,35,22.80
2014,06,30,16,36,22.80
2014,06,30,16,37,22.90
2014,06,30,16,38,22.80
2014,06,30,16,39,22.80
2014,06,30,16,40,22.80
2014,06,30,16,41,22.80
2014,06,30,16,42,22.80
2014,06,30,16,43,22.70
2014,06,30,16,44,22.70
2014,06,30,16,45,22.70
2014,06,30,16,46,22.70
2014,06,30,16,47,22.70
2014,06,30,16,48,22.60
2014,06,30,16,49,22.70
2014,06,30,16,50,22.70
2014,06,30,16,51,22.60
2014,06,30,16,52,22.60
2014,06,30,16,53,22.70
2014,06,30,16,54,22.70
2014,06,30,16,55,22.80
2014,06,30,16,56,22.80
2014,06,30,16,57,22.80
2014,06,30,16,58,22.80
2014,06,30,16,59,22.80
2014,06,30,17,00,22.70
2014,06,30,17,01,22.70
2014,06,30,17,02,22.80
2014,06,30,17,03,22.80
2014,06,30,17,04,22.80
2014,06,30,17,05,22.80
2014,06,30,17,06,22.70
2014,06,30,17,07,22.70
2014,06,30,17,08,22.70
2014,06,30,17,09,22.80
2014,06,30,17,10,22.80
2014,06,30,17,11,22.90
2014,06,30,17,12,22.90
2014,06,30,17,13,22.90
2014,06,30,17,14,22.90
2014,06,30,17,15,22.90
2014,06,30,17,16,22.90
2014,06,30,17,17,22.80
2014,06,30,17,18,22.80
2014,06,30,17,19,22.80
2014,06,30,17,20,22.80
2014,06,30,17,21,22.80
2014,06,30,17,22,22.80